Time,TemperatureF,DewpointF,PressureIn,WindDirection,WindDirectionDegrees,WindSpeedMPH,WindSpeedGustMPH,Humidity,HourlyPrecipIn,Conditions,Clouds,dailyrainin,SoftwareType,DateUTC
2013-01-24 00:00:00,43.3,34.9,30.25,North,355,5.0,0.0,72,0.00,,,0.00,VWS V14.01,2013-01-24 06:00:00,
2013-01-24 00:10:00,43.2,33.7,30.25,NNE,14,0.0,0.0,69,0.00,,,0.00,VWS V14.01,2013-01-24 06:10:00,
2013-01-24 00:15:00,43.0,33.2,30.22,ENE,60,0.0,0.0,68,0.00,,,0.00,VWS V14.01,2013-01-24 06:15:00,
2013-01-24 00:20:00,42.7,32.9,30.22,ENE,59,0.0,0.0,68,0.00,,,0.00,VWS V14.01,2013-01-24 06:20:00,
2013-01-24 00:25:00,42.5,32.3,30.22,ENE,67,0.0,0.0,67,0.00,,,0.00,VWS V14.01,2013-01-24 06:25:00,
2013-01-24 00:30:00,42.4,31.9,30.23,North,5,0.0,0.0,66,0.00,,,0.00,VWS V14.01,2013-01-24 06:30:00,
2013-01-24 00:40:00,42.1,31.6,30.23,NNW,336,0.0,0.0,66,0.00,,,0.00,VWS V14.01,2013-01-24 06:40:00,
2013-01-24 00:45:00,41.9,31.0,30.23,NNE,32,0.0,0.0,65,0.00,,,0.00,VWS V14.01,2013-01-24 06:45:00,
2013-01-24 00:50:00,41.8,30.9,30.23,NNE,32,0.0,0.0,65,0.00,,,0.00,VWS V14.01,2013-01-24 06:50:00,
2013-01-24 00:55:00,41.6,30.7,30.23,NNE,18,0.0,0.0,65,0.00,,,0.00,VWS V14.01,2013-01-24 06:55:00,
2013-01-24 01:00:00,41.5,30.6,30.24,NE,42,2.0,0.0,65,0.00,,,0.00,VWS V14.01,2013-01-24 07:00:00,
2013-01-24 01:05:00,41.5,30.6,30.24,NE,42,0.0,0.0,65,0.00,,,0.00,VWS V14.01,2013-01-24 07:05:00,
2013-01-24 01:10:00,41.5,30.6,30.24,NE,41,0.0,0.0,65,0.00,,,0.00,VWS V14.01,2013-01-24 07:10:00,
2013-01-24 01:20:00,41.7,30.8,30.24,NNE,14,4.0,0.0,65,0.00,,,0.00,VWS V14.01,2013-01-24 07:20:00,
2013-01-24 01:25:00,41.8,29.8,30.24,NNW,344,3.0,0.0,62,0.00,,,0.00,VWS V14.01,2013-01-24 07:25:00,
2013-01-24 01:30:00,41.9,29.9,30.24,North,9,1.0,0.0,62,0.00,,,0.00,VWS V14.01,2013-01-24 07:30:00,
2013-01-24 01:35:00,41.9,29.9,30.24,NNW,340,1.0,0.0,62,0.00,,,0.00,VWS V14.01,2013-01-24 07:35:00,
2013-01-24 01:40:00,41.8,29.8,30.24,NNE,17,0.0,0.0,62,0.00,,,0.00,VWS V14.01,2013-01-24 07:40:00,
2013-01-24 01:50:00,41.7,29.7,30.25,NE,42,3.0,0.0,62,0.00,,,0.00,VWS V14.01,2013-01-24 07:50:00,
2013-01-24 01:55:00,41.7,29.3,30.25,NE,34,2.0,0.0,61,0.00,,,0.00,VWS V14.01,2013-01-24 07:55:00,
2013-01-24 02:00:00,41.6,28.8,30.26,North,10,0.0,0.0,60,0.00,,,0.00,VWS V14.01,2013-01-24 08:00:00,
2013-01-24 02:10:00,41.5,28.7,30.26,North,360,1.0,0.0,60,0.00,,,0.00,VWS V14.01,2013-01-24 08:10:00,
2013-01-24 02:15:00,41.4,28.6,30.24,NNW,347,0.0,0.0,60,0.00,,,0.00,VWS V14.01,2013-01-24 08:15:00,
2013-01-24 02:20:00,41.4,29.0,30.24,NNE,28,0.0,0.0,61,0.00,,,0.00,VWS V14.01,2013-01-24 08:20:00,
2013-01-24 02:25:00,41.2,28.0,30.24,NW,326,0.0,0.0,59,0.00,,,0.00,VWS V14.01,2013-01-24 08:25:00,
2013-01-24 02:30:00,41.2,28.4,30.25,NNE,18,4.0,0.0,60,0.00,,,0.00,VWS V14.01,2013-01-24 08:30:00,
2013-01-24 02:35:00,41.1,28.3,30.25,NNE,21,0.0,0.0,60,0.00,,,0.00,VWS V14.01,2013-01-24 08:35:00,
2013-01-24 02:40:00,41.1,28.3,30.25,NNE,21,0.0,0.0,60,0.00,,,0.00,VWS V14.01,2013-01-24 08:40:00,
2013-01-24 02:45:00,41.1,28.7,30.25,NNE,19,0.0,0.0,61,0.00,,,0.00,VWS V14.01,2013-01-24 08:45:00,
2013-01-24 02:55:00,41.0,27.8,30.25,North,360,6.0,0.0,59,0.00,,,0.00,VWS V14.01,2013-01-24 08:55:00,
2013-01-24 03:00:00,41.0,27.8,30.26,NNE,30,0.0,0.0,59,0.00,,,0.00,VWS V14.01,2013-01-24 09:00:00,
2013-01-24 03:05:00,40.9,27.7,30.26,NE,38,0.0,0.0,59,0.00,,,0.00,VWS V14.01,2013-01-24 09:05:00,
2013-01-24 03:15:00,40.8,27.6,30.25,NE,36,0.0,0.0,59,0.00,,,0.00,VWS V14.01,2013-01-24 09:15:00,
2013-01-24 03:20:00,40.7,27.5,30.25,ENE,65,0.0,0.0,59,0.00,,,0.00,VWS V14.01,2013-01-24 09:20:00,
2013-01-24 03:25:00,40.7,27.5,30.25,NNW,336,0.0,0.0,59,0.00,,,0.00,VWS V14.01,2013-01-24 09:25:00,
2013-01-24 03:30:00,40.6,27.4,30.26,North,360,0.0,0.0,59,0.00,,,0.00,VWS V14.01,2013-01-24 09:30:00,
2013-01-24 03:35:00,40.5,27.3,30.26,North,5,0.0,0.0,59,0.00,,,0.00,VWS V14.01,2013-01-24 09:35:00,
2013-01-24 03:40:00,40.4,27.2,30.26,North,5,0.0,0.0,59,0.00,,,0.00,VWS V14.01,2013-01-24 09:40:00,
2013-01-24 03:50:00,40.2,27.4,30.26,NNE,15,0.0,0.0,60,0.00,,,0.00,VWS V14.01,2013-01-24 09:50:00,
2013-01-24 03:55:00,40.1,26.9,30.26,North,355,0.0,0.0,59,0.00,,,0.00,VWS V14.01,2013-01-24 09:55:00,
2013-01-24 04:05:00,39.8,27.1,30.26,NNE,30,0.0,0.0,60,0.00,,,0.00,VWS V14.01,2013-01-24 10:05:00,
2013-01-24 04:10:00,39.7,27.0,30.26,ENE,69,1.0,0.0,60,0.00,,,0.00,VWS V14.01,2013-01-24 10:10:00,
2013-01-24 04:15:00,39.6,26.5,30.26,East,93,0.0,0.0,59,0.00,,,0.00,VWS V14.01,2013-01-24 10:15:00,
2013-01-24 04:25:00,39.4,26.3,30.26,ENE,74,0.0,0.0,59,0.00,,,0.00,VWS V14.01,2013-01-24 10:25:00,
2013-01-24 04:30:00,39.2,26.1,30.26,NE,48,0.0,0.0,59,0.00,,,0.00,VWS V14.01,2013-01-24 10:30:00,
2013-01-24 04:40:00,39.1,25.6,30.26,NE,45,0.0,0.0,58,0.00,,,0.00,VWS V14.01,2013-01-24 10:40:00,
2013-01-24 04:45:00,39.0,25.9,30.25,NNE,33,0.0,0.0,59,0.00,,,0.00,VWS V14.01,2013-01-24 10:45:00,
2013-01-24 04:50:00,38.9,25.4,30.25,NNE,31,0.0,0.0,58,0.00,,,0.00,VWS V14.01,2013-01-24 10:50:00,
2013-01-24 04:55:00,38.8,25.7,30.25,North,5,0.0,0.0,59,0.00,,,0.00,VWS V14.01,2013-01-24 10:55:00,
2013-01-24 05:05:00,38.7,26.0,30.26,NW,315,3.0,0.0,60,0.00,,,0.00,VWS V14.01,2013-01-24 11:05:00,
2013-01-24 05:10:00,38.6,25.5,30.26,NE,49,0.0,0.0,59,0.00,,,0.00,VWS V14.01,2013-01-24 11:10:00,
2013-01-24 05:15:00,38.4,25.7,30.27,NNE,22,0.0,0.0,60,0.00,,,0.00,VWS V14.01,2013-01-24 11:15:00,
2013-01-24 05:20:00,38.3,25.6,30.27,ENE,78,1.0,0.0,60,0.00,,,0.00,VWS V14.01,2013-01-24 11:20:00,
2013-01-24 05:25:00,38.3,25.6,30.27,ENE,71,0.0,0.0,60,0.00,,,0.00,VWS V14.01,2013-01-24 11:25:00,
2013-01-24 05:30:00,38.2,25.1,30.27,ENE,72,0.0,0.0,59,0.00,,,0.00,VWS V14.01,2013-01-24 11:30:00,
2013-01-24 05:35:00,38.1,25.1,30.27,NE,53,1.0,0.0,59,0.00,,,0.00,VWS V14.01,2013-01-24 11:35:00,
2013-01-24 05:40:00,38.0,24.5,30.27,East,94,0.0,0.0,58,0.00,,,0.00,VWS V14.01,2013-01-24 11:40:00,
2013-01-24 05:45:00,37.9,24.5,30.27,ENE,77,0.0,0.0,58,0.00,,,0.00,VWS V14.01,2013-01-24 11:45:00,
2013-01-24 05:55:00,37.7,24.3,30.27,NE,36,2.0,0.0,58,0.00,,,0.00,VWS V14.01,2013-01-24 11:55:00,
2013-01-24 06:00:00,37.5,24.1,30.27,NE,53,0.0,0.0,58,0.00,,,0.00,VWS V14.01,2013-01-24 12:00:00,
2013-01-24 06:10:00,37.2,23.8,30.27,East,94,0.0,0.0,58,0.00,,,0.00,VWS V14.01,2013-01-24 12:10:00,
2013-01-24 06:15:00,37.1,23.7,30.28,NNE,22,2.0,0.0,58,0.00,,,0.00,VWS V14.01,2013-01-24 12:15:00,
2013-01-24 06:20:00,37.0,23.6,30.28,East,79,5.0,0.0,58,0.00,,,0.00,VWS V14.01,2013-01-24 12:20:00,
2013-01-24 06:25:00,36.8,23.4,30.28,NE,49,0.0,0.0,58,0.00,,,0.00,VWS V14.01,2013-01-24 12:25:00,
2013-01-24 06:30:00,36.6,23.2,30.28,East,97,0.0,0.0,58,0.00,,,0.00,VWS V14.01,2013-01-24 12:30:00,
2013-01-24 06:35:00,36.6,23.6,30.28,East,101,0.0,0.0,59,0.00,,,0.00,VWS V14.01,2013-01-24 12:35:00,
2013-01-24 06:40:00,36.5,23.1,30.28,NE,43,0.0,0.0,58,0.00,,,0.00,VWS V14.01,2013-01-24 12:40:00,
2013-01-24 06:50:00,36.4,23.5,30.30,ESE,113,2.0,0.0,59,0.00,,,0.00,VWS V14.01,2013-01-24 12:50:00,
2013-01-24 06:55:00,36.4,23.5,30.30,NE,40,0.0,0.0,59,0.00,,,0.00,VWS V14.01,2013-01-24 12:55:00,
2013-01-24 07:00:00,36.4,23.5,30.29,North,355,0.0,0.0,59,0.00,,,0.00,VWS V14.01,2013-01-24 13:00:00,
2013-01-24 07:10:00,36.4,23.5,30.29,East,90,0.0,0.0,59,0.00,,,0.00,VWS V14.01,2013-01-24 13:10:00,
2013-01-24 07:15:00,36.4,23.5,30.30,ENE,73,2.0,0.0,59,0.00,,,0.00,VWS V14.01,2013-01-24 13:15:00,
2013-01-24 07:25:00,36.5,23.1,30.30,ESE,113,1.0,0.0,58,0.00,,,0.00,VWS V14.01,2013-01-24 13:25:00,
2013-01-24 07:30:00,36.5,23.1,30.30,ESE,114,0.0,0.0,58,0.00,,,0.00,VWS V14.01,2013-01-24 13:30:00,
2013-01-24 07:35:00,36.5,22.7,30.30,East,94,0.0,0.0,57,0.00,,,0.00,VWS V14.01,2013-01-24 13:35:00,
2013-01-24 07:40:00,36.5,22.7,30.30,East,101,1.0,0.0,57,0.00,,,0.00,VWS V14.01,2013-01-24 13:40:00,
2013-01-24 07:45:00,36.5,22.7,30.30,ENE,72,1.0,0.0,57,0.00,,,0.00,VWS V14.01,2013-01-24 13:45:00,
2013-01-24 07:55:00,36.5,21.9,30.30,NE,49,0.0,0.0,55,0.00,,,0.00,VWS V14.01,2013-01-24 13:55:00,
2013-01-24 08:00:00,36.6,22.4,30.30,NNE,19,0.0,0.0,56,0.00,,,0.00,VWS V14.01,2013-01-24 14:00:00,
2013-01-24 08:10:00,36.5,20.6,30.30,ESE,105,0.0,0.0,52,0.00,,,0.00,VWS V14.01,2013-01-24 14:10:00,
2013-01-24 08:15:00,36.4,20.5,30.29,ESE,110,6.0,0.0,52,0.00,,,0.00,VWS V14.01,2013-01-24 14:15:00,
2013-01-24 08:20:00,36.4,20.0,30.29,ESE,109,2.0,0.0,51,0.00,,,0.00,VWS V14.01,2013-01-24 14:20:00,
2013-01-24 08:30:00,36.2,19.8,30.30,ENE,67,1.0,0.0,51,0.00,,,0.00,VWS V14.01,2013-01-24 14:30:00,
2013-01-24 08:35:00,36.1,19.7,30.30,ESE,103,6.0,0.0,51,0.00,,,0.00,VWS V14.01,2013-01-24 14:35:00,
2013-01-24 08:40:00,36.0,20.1,30.30,East,80,0.0,0.0,52,0.00,,,0.00,VWS V14.01,2013-01-24 14:40:00,
2013-01-24 08:45:00,36.1,20.6,30.31,East,92,0.0,0.0,53,0.00,,,0.00,VWS V14.01,2013-01-24 14:45:00,
2013-01-24 08:50:00,36.1,20.2,30.31,ENE,66,0.0,0.0,52,0.00,,,0.00,VWS V14.01,2013-01-24 14:50:00,
2013-01-24 08:55:00,36.2,20.7,30.31,NE,49,1.0,0.0,53,0.00,,,0.00,VWS V14.01,2013-01-24 14:55:00,
2013-01-24 09:00:00,36.3,20.8,30.31,SE,134,0.0,0.0,53,0.00,,,0.00,VWS V14.01,2013-01-24 15:00:00,
2013-01-24 09:10:00,36.3,20.4,30.31,ENE,59,0.0,0.0,52,0.00,,,0.00,VWS V14.01,2013-01-24 15:10:00,
2013-01-24 09:20:00,36.1,19.7,30.32,ENE,64,1.0,0.0,51,0.00,,,0.00,VWS V14.01,2013-01-24 15:20:00,
2013-01-24 09:25:00,36.1,19.7,30.32,ESE,109,0.0,0.0,51,0.00,,,0.00,VWS V14.01,2013-01-24 15:25:00,
2013-01-24 09:30:00,35.9,20.0,30.32,ENE,57,0.0,0.0,52,0.00,,,0.00,VWS V14.01,2013-01-24 15:30:00,
2013-01-24 09:40:00,36.0,20.1,30.32,NE,46,0.0,0.0,52,0.00,,,0.00,VWS V14.01,2013-01-24 15:40:00,
2013-01-24 09:45:00,36.1,20.6,30.33,ESE,107,2.0,0.0,53,0.00,,,0.00,VWS V14.01,2013-01-24 15:45:00,
2013-01-24 09:50:00,36.3,20.4,30.33,East,90,2.0,0.0,52,0.00,,,0.00,VWS V14.01,2013-01-24 15:50:00,
2013-01-24 09:55:00,36.2,20.3,30.33,NW,317,1.0,0.0,52,0.00,,,0.00,VWS V14.01,2013-01-24 15:55:00,
2013-01-24 10:00:00,36.5,20.6,30.32,ENE,63,1.0,0.0,52,0.00,,,0.00,VWS V14.01,2013-01-24 16:00:00,
2013-01-24 10:10:00,36.3,20.4,30.32,NE,42,1.0,0.0,52,0.00,,,0.00,VWS V14.01,2013-01-24 16:10:00,
2013-01-24 10:15:00,36.4,20.5,30.32,NNW,348,0.0,0.0,52,0.00,,,0.00,VWS V14.01,2013-01-24 16:15:00,
2013-01-24 10:20:00,36.5,20.6,30.32,NE,56,0.0,0.0,52,0.00,,,0.00,VWS V14.01,2013-01-24 16:20:00,
2013-01-24 10:30:00,36.7,20.3,30.31,SE,125,6.0,0.0,51,0.00,,,0.00,VWS V14.01,2013-01-24 16:30:00,
2013-01-24 10:40:00,36.9,20.5,30.31,ENE,76,0.0,0.0,51,0.00,,,0.00,VWS V14.01,2013-01-24 16:40:00,
2013-01-24 10:45:00,37.2,20.8,30.30,NE,38,6.0,0.0,51,0.00,,,0.00,VWS V14.01,2013-01-24 16:45:00,
2013-01-24 10:50:00,37.4,20.9,30.30,NE,50,2.0,0.0,51,0.00,,,0.00,VWS V14.01,2013-01-24 16:50:00,
2013-01-24 10:55:00,37.1,20.2,30.30,ENE,72,0.0,0.0,50,0.00,,,0.00,VWS V14.01,2013-01-24 16:55:00,
2013-01-24 11:00:00,37.0,20.1,30.30,East,98,3.0,0.0,50,0.00,,,0.00,VWS V14.01,2013-01-24 17:00:00,
2013-01-24 11:10:00,36.9,20.0,30.30,SE,134,5.0,0.0,50,0.00,,,0.00,VWS V14.01,2013-01-24 17:10:00,
2013-01-24 11:15:00,36.5,20.1,30.30,ESE,117,1.0,0.0,51,0.00,,,0.00,VWS V14.01,2013-01-24 17:15:00,
2013-01-24 11:25:00,36.6,20.2,30.30,ENE,76,1.0,0.0,51,0.00,,,0.00,VWS V14.01,2013-01-24 17:25:00,
2013-01-24 11:30:00,37.0,21.0,30.30,ENE,67,0.0,0.0,52,0.00,,,0.00,VWS V14.01,2013-01-24 17:30:00,
2013-01-24 11:35:00,37.1,20.2,30.30,ESE,103,1.0,0.0,50,0.00,,,0.00,VWS V14.01,2013-01-24 17:35:00,
2013-01-24 11:45:00,37.0,20.1,30.30,SE,134,0.0,0.0,50,0.00,,,0.00,VWS V14.01,2013-01-24 17:45:00,
2013-01-24 11:50:00,37.1,20.7,30.30,ESE,105,1.0,0.0,51,0.00,,,0.00,VWS V14.01,2013-01-24 17:50:00,
2013-01-24 11:55:00,37.5,21.0,30.30,ESE,102,7.0,0.0,51,0.00,,,0.00,VWS V14.01,2013-01-24 17:55:00,
2013-01-24 12:05:00,37.6,20.2,30.28,North,5,1.0,0.0,49,0.00,,,0.00,VWS V14.01,2013-01-24 18:05:00,
2013-01-24 12:15:00,37.6,19.7,30.28,East,79,6.0,0.0,48,0.00,,,0.00,VWS V14.01,2013-01-24 18:15:00,
2013-01-24 12:25:00,37.7,20.3,30.28,NE,55,0.0,0.0,49,0.00,,,0.00,VWS V14.01,2013-01-24 18:25:00,
2013-01-24 12:30:00,37.8,19.4,30.27,ENE,78,9.0,0.0,47,0.00,,,0.00,VWS V14.01,2013-01-24 18:30:00,
2013-01-24 12:35:00,37.8,19.9,30.27,ENE,61,0.0,0.0,48,0.00,,,0.00,VWS V14.01,2013-01-24 18:35:00,
2013-01-24 12:45:00,37.9,19.5,30.27,SE,138,2.0,0.0,47,0.00,,,0.00,VWS V14.01,2013-01-24 18:45:00,
2013-01-24 12:50:00,37.9,18.5,30.27,ESE,105,0.0,0.0,45,0.00,,,0.00,VWS V14.01,2013-01-24 18:50:00,
2013-01-24 12:55:00,37.9,18.0,30.27,SSE,148,0.0,0.0,44,0.00,,,0.00,VWS V14.01,2013-01-24 18:55:00,
2013-01-24 13:00:00,37.9,18.0,30.26,East,81,1.0,0.0,44,0.00,,,0.00,VWS V14.01,2013-01-24 19:00:00,
2013-01-24 13:10:00,38.2,18.2,30.26,ESE,122,1.0,0.0,44,0.00,,,0.00,VWS V14.01,2013-01-24 19:10:00,
2013-01-24 13:15:00,38.1,18.6,30.25,NNE,33,0.0,0.0,45,0.00,,,0.00,VWS V14.01,2013-01-24 19:15:00,
2013-01-24 13:25:00,38.4,18.4,30.25,NE,47,1.0,0.0,44,0.00,,,0.00,VWS V14.01,2013-01-24 19:25:00,
2013-01-24 13:30:00,38.2,18.2,30.24,ENE,62,0.0,0.0,44,0.00,,,0.00,VWS V14.01,2013-01-24 19:30:00,
2013-01-24 13:40:00,38.3,18.3,30.24,East,99,0.0,0.0,44,0.00,,,0.00,VWS V14.01,2013-01-24 19:40:00,
2013-01-24 13:45:00,38.7,19.2,30.23,East,99,0.0,0.0,45,0.00,,,0.00,VWS V14.01,2013-01-24 19:45:00,
2013-01-24 13:55:00,38.2,18.8,30.23,East,87,0.0,0.0,45,0.00,,,0.00,VWS V14.01,2013-01-24 19:55:00,
2013-01-24 14:05:00,37.8,18.4,30.22,East,87,0.0,0.0,45,0.00,,,0.00,VWS V14.01,2013-01-24 20:05:00,
2013-01-24 14:10:00,37.7,18.3,30.22,East,85,0.0,0.0,45,0.00,,,0.00,VWS V14.01,2013-01-24 20:10:00,
2013-01-24 14:15:00,37.8,18.9,30.21,ESE,111,1.0,0.0,46,0.00,,,0.00,VWS V14.01,2013-01-24 20:15:00,
2013-01-24 14:20:00,38.1,19.2,30.21,SE,140,0.0,0.0,46,0.00,,,0.00,VWS V14.01,2013-01-24 20:20:00,
2013-01-24 14:30:00,38.3,19.4,30.21,NE,49,3.0,0.0,46,0.00,,,0.00,VWS V14.01,2013-01-24 20:30:00,
2013-01-24 14:35:00,38.3,19.4,30.21,East,90,2.0,0.0,46,0.00,,,0.00,VWS V14.01,2013-01-24 20:35:00,
2013-01-24 14:45:00,38.0,19.6,30.20,ESE,111,0.0,0.0,47,0.00,,,0.00,VWS V14.01,2013-01-24 20:45:00,
2013-01-24 14:50:00,38.2,19.8,30.20,ENE,61,1.0,0.0,47,0.00,,,0.00,VWS V14.01,2013-01-24 20:50:00,
2013-01-24 15:00:00,38.2,20.2,30.20,ESE,119,0.0,0.0,48,0.00,,,0.00,VWS V14.01,2013-01-24 21:00:00,
2013-01-24 15:05:00,38.0,20.5,30.20,ESE,105,6.0,0.0,49,0.00,,,0.00,VWS V14.01,2013-01-24 21:05:00,
2013-01-24 15:15:00,38.2,20.2,30.19,East,100,2.0,0.0,48,0.00,,,0.00,VWS V14.01,2013-01-24 21:15:00,
2013-01-24 15:20:00,38.3,20.8,30.19,East,82,2.0,0.0,49,0.00,,,0.00,VWS V14.01,2013-01-24 21:20:00,
2013-01-24 15:30:00,38.3,20.8,30.20,East,90,0.0,0.0,49,0.00,,,0.00,VWS V14.01,2013-01-24 21:30:00,
2013-01-24 15:40:00,38.2,20.7,30.20,East,98,0.0,0.0,49,0.00,,,0.00,VWS V14.01,2013-01-24 21:40:00,
2013-01-24 15:45:00,38.1,20.6,30.19,ENE,69,7.0,0.0,49,0.00,,,0.00,VWS V14.01,2013-01-24 21:45:00,
2013-01-24 15:55:00,38.1,20.6,30.19,East,87,2.0,0.0,49,0.00,,,0.00,VWS V14.01,2013-01-24 21:55:00,
2013-01-24 16:00:00,38.1,21.1,30.18,ESE,109,5.0,0.0,50,0.00,,,0.00,VWS V14.01,2013-01-24 22:00:00,
2013-01-24 16:05:00,38.2,21.2,30.18,East,91,0.0,0.0,50,0.00,,,0.00,VWS V14.01,2013-01-24 22:05:00,
2013-01-24 16:10:00,38.3,21.3,30.18,East,91,1.0,0.0,50,0.00,,,0.00,VWS V14.01,2013-01-24 22:10:00,
2013-01-24 16:20:00,38.1,21.1,30.18,East,82,0.0,0.0,50,0.00,,,0.00,VWS V14.01,2013-01-24 22:20:00,
2013-01-24 16:25:00,38.1,21.1,30.18,East,92,4.0,0.0,50,0.00,,,0.00,VWS V14.01,2013-01-24 22:25:00,
2013-01-24 16:30:00,38.0,21.0,30.18,ENE,63,0.0,0.0,50,0.00,,,0.00,VWS V14.01,2013-01-24 22:30:00,
2013-01-24 16:35:00,38.0,21.5,30.18,East,95,4.0,0.0,51,0.00,,,0.00,VWS V14.01,2013-01-24 22:35:00,
2013-01-24 16:45:00,38.1,21.6,30.18,ENE,63,0.0,0.0,51,0.00,,,0.00,VWS V14.01,2013-01-24 22:45:00,
2013-01-24 16:50:00,38.0,22.0,30.18,East,80,2.0,0.0,52,0.00,,,0.00,VWS V14.01,2013-01-24 22:50:00,
2013-01-24 17:00:00,38.1,22.0,30.16,East,99,0.0,0.0,52,0.00,,,0.00,VWS V14.01,2013-01-24 23:00:00,
2013-01-24 17:10:00,38.0,22.0,30.16,ESE,105,2.0,0.0,52,0.00,,,0.00,VWS V14.01,2013-01-24 23:10:00,
2013-01-24 17:15:00,38.0,22.4,30.15,ESE,103,3.0,0.0,53,0.00,,,0.00,VWS V14.01,2013-01-24 23:15:00,
2013-01-24 17:20:00,38.0,22.4,30.15,East,101,0.0,0.0,53,0.00,,,0.00,VWS V14.01,2013-01-24 23:20:00,
2013-01-24 17:30:00,38.0,22.9,30.15,East,96,1.0,0.0,54,0.00,,,0.00,VWS V14.01,2013-01-24 23:30:00,
2013-01-24 17:35:00,38.0,22.9,30.15,ESE,113,0.0,0.0,54,0.00,,,0.00,VWS V14.01,2013-01-24 23:35:00,
2013-01-24 17:45:00,38.0,22.9,30.15,ENE,76,2.0,0.0,54,0.00,,,0.00,VWS V14.01,2013-01-24 23:45:00,
2013-01-24 17:50:00,38.1,22.9,30.15,East,86,0.0,0.0,54,0.00,,,0.00,VWS V14.01,2013-01-24 23:50:00,
2013-01-24 17:55:00,38.1,23.4,30.15,ESE,105,0.0,0.0,55,0.00,,,0.00,VWS V14.01,2013-01-24 23:55:00,
2013-01-24 18:00:00,38.2,23.9,30.16,East,94,0.0,0.0,56,0.00,,,0.00,VWS V14.01,2013-01-25 00:00:00,
2013-01-24 18:05:00,38.2,23.5,30.16,East,93,1.0,0.0,55,0.00,,,0.00,VWS V14.01,2013-01-25 00:05:00,
2013-01-24 18:10:00,38.2,23.5,30.16,East,98,0.0,0.0,55,0.00,,,0.00,VWS V14.01,2013-01-25 00:10:00,
2013-01-24 18:15:00,38.2,23.9,30.15,East,96,1.0,0.0,56,0.00,,,0.00,VWS V14.01,2013-01-25 00:15:00,
2013-01-24 18:25:00,38.3,24.0,30.15,ENE,74,0.0,0.0,56,0.00,,,0.00,VWS V14.01,2013-01-25 00:25:00,
2013-01-24 18:35:00,38.4,24.1,30.17,East,100,3.0,0.0,56,0.00,,,0.00,VWS V14.01,2013-01-25 00:35:00,
2013-01-24 18:45:00,38.4,23.7,30.15,East,90,0.0,0.0,55,0.00,,,0.00,VWS V14.01,2013-01-25 00:45:00,
2013-01-24 18:50:00,38.4,24.1,30.15,NNE,27,1.0,0.0,56,0.00,,,0.00,VWS V14.01,2013-01-25 00:50:00,
2013-01-24 19:00:00,38.4,23.7,30.14,ENE,73,3.0,0.0,55,0.00,,,0.00,VWS V14.01,2013-01-25 01:00:00,
2013-01-24 19:05:00,38.4,23.7,30.14,East,95,0.0,0.0,55,0.00,,,0.00,VWS V14.01,2013-01-25 01:05:00,
2013-01-24 19:10:00,38.4,23.7,30.14,East,80,2.0,0.0,55,0.00,,,0.00,VWS V14.01,2013-01-25 01:10:00,
2013-01-24 19:15:00,38.3,23.1,30.13,SE,134,0.0,0.0,54,0.00,,,0.00,VWS V14.01,2013-01-25 01:15:00,
2013-01-24 19:25:00,38.3,23.6,30.13,ESE,102,2.0,0.0,55,0.00,,,0.00,VWS V14.01,2013-01-25 01:25:00,
2013-01-24 19:30:00,38.2,23.5,30.12,ENE,57,0.0,0.0,55,0.00,,,0.00,VWS V14.01,2013-01-25 01:30:00,
2013-01-24 19:35:00,38.1,22.9,30.12,ESE,117,0.0,0.0,54,0.00,,,0.00,VWS V14.01,2013-01-25 01:35:00,
2013-01-24 19:40:00,38.1,23.4,30.12,East,89,3.0,0.0,55,0.00,,,0.00,VWS V14.01,2013-01-25 01:40:00,
2013-01-24 19:45:00,38.0,22.9,30.12,ESE,106,2.0,0.0,54,0.00,,,0.00,VWS V14.01,2013-01-25 01:45:00,
2013-01-24 19:55:00,37.9,23.2,30.12,ESE,107,0.0,0.0,55,0.00,,,0.00,VWS V14.01,2013-01-25 01:55:00,
2013-01-24 20:00:00,37.9,23.2,30.12,ESE,105,0.0,0.0,55,0.00,,,0.00,VWS V14.01,2013-01-25 02:00:00,
2013-01-24 20:05:00,37.9,23.2,30.12,ESE,103,0.0,0.0,55,0.00,,,0.00,VWS V14.01,2013-01-25 02:05:00,
2013-01-24 20:10:00,37.9,23.6,30.12,NE,41,0.0,0.0,56,0.00,,,0.00,VWS V14.01,2013-01-25 02:10:00,
2013-01-24 20:15:00,37.9,23.2,30.14,East,90,0.0,0.0,55,0.00,,,0.00,VWS V14.01,2013-01-25 02:15:00,
2013-01-24 20:20:00,37.9,23.2,30.14,ESE,103,0.0,0.0,55,0.00,,,0.00,VWS V14.01,2013-01-25 02:20:00,
2013-01-24 20:25:00,37.9,23.2,30.14,East,90,3.0,0.0,55,0.00,,,0.00,VWS V14.01,2013-01-25 02:25:00,
2013-01-24 20:35:00,37.8,23.5,30.15,East,94,0.0,0.0,56,0.00,,,0.00,VWS V14.01,2013-01-25 02:35:00,
2013-01-24 20:40:00,37.7,23.0,30.15,East,91,0.0,0.0,55,0.00,,,0.00,VWS V14.01,2013-01-25 02:40:00,
2013-01-24 20:45:00,37.5,22.8,30.15,ESE,104,0.0,0.0,55,0.00,,,0.00,VWS V14.01,2013-01-25 02:45:00,
2013-01-24 20:55:00,36.9,22.3,30.15,NE,49,0.0,0.0,55,0.00,,,0.00,VWS V14.01,2013-01-25 02:55:00,
2013-01-24 21:00:00,36.8,22.2,30.16,NE,49,0.0,0.0,55,0.00,,,0.00,VWS V14.01,2013-01-25 03:00:00,
2013-01-24 21:05:00,36.6,22.0,30.16,ENE,57,1.0,0.0,55,0.00,,,0.00,VWS V14.01,2013-01-25 03:05:00,
2013-01-24 21:10:00,36.4,21.8,30.16,East,86,3.0,0.0,55,0.00,,,0.00,VWS V14.01,2013-01-25 03:10:00,
2013-01-24 21:15:00,36.2,22.0,30.16,East,89,0.0,0.0,56,0.00,,,0.00,VWS V14.01,2013-01-25 03:15:00,
2013-01-24 21:20:00,36.0,21.4,30.16,East,88,2.0,0.0,55,0.00,,,0.00,VWS V14.01,2013-01-25 03:20:00,
2013-01-24 21:25:00,35.9,21.8,30.16,East,91,0.0,0.0,56,0.00,,,0.00,VWS V14.01,2013-01-25 03:25:00,
2013-01-24 21:35:00,35.7,21.6,30.16,ENE,58,0.0,0.0,56,0.00,,,0.00,VWS V14.01,2013-01-25 03:35:00,
2013-01-24 21:40:00,35.5,21.4,30.16,East,87,1.0,0.0,56,0.00,,,0.00,VWS V14.01,2013-01-25 03:40:00,
2013-01-24 21:45:00,35.4,21.3,30.15,East,90,0.0,0.0,56,0.00,,,0.00,VWS V14.01,2013-01-25 03:45:00,
2013-01-24 21:50:00,35.3,21.6,30.15,East,90,3.0,0.0,57,0.00,,,0.00,VWS V14.01,2013-01-25 03:50:00,
2013-01-24 21:55:00,35.2,21.5,30.15,East,83,2.0,0.0,57,0.00,,,0.00,VWS V14.01,2013-01-25 03:55:00,
2013-01-24 22:00:00,35.1,21.4,30.14,SE,140,3.0,0.0,57,0.00,,,0.00,VWS V14.01,2013-01-25 04:00:00,
2013-01-24 22:10:00,34.8,21.5,30.14,ESE,109,0.0,0.0,58,0.00,,,0.00,VWS V14.01,2013-01-25 04:10:00,
2013-01-24 22:15:00,34.7,21.5,30.15,East,86,2.0,0.0,58,0.00,,,0.00,VWS V14.01,2013-01-25 04:15:00,
2013-01-24 22:20:00,34.7,21.9,30.15,ENE,61,0.0,0.0,59,0.00,,,0.00,VWS V14.01,2013-01-25 04:20:00,
2013-01-24 22:25:00,34.6,21.4,30.15,ENE,76,0.0,0.0,58,0.00,,,0.00,VWS V14.01,2013-01-25 04:25:00,
2013-01-24 22:30:00,34.6,21.4,30.15,ENE,77,0.0,0.0,58,0.00,,,0.00,VWS V14.01,2013-01-25 04:30:00,
2013-01-24 22:40:00,34.5,21.7,30.15,ENE,78,0.0,0.0,59,0.00,,,0.00,VWS V14.01,2013-01-25 04:40:00,
2013-01-24 22:45:00,34.5,21.7,30.15,ENE,78,0.0,0.0,59,0.00,,,0.00,VWS V14.01,2013-01-25 04:45:00,
2013-01-24 22:55:00,34.4,21.6,30.15,East,79,0.0,0.0,59,0.00,,,0.00,VWS V14.01,2013-01-25 04:55:00,
2013-01-24 23:00:00,34.4,21.6,30.15,ESE,105,0.0,0.0,59,0.00,,,0.00,VWS V14.01,2013-01-25 05:00:00,
2013-01-24 23:05:00,34.4,21.6,30.15,ESE,105,0.0,0.0,59,0.00,,,0.00,VWS V14.01,2013-01-25 05:05:00,
2013-01-24 23:10:00,34.3,21.9,30.15,ESE,105,0.0,0.0,60,0.00,,,0.00,VWS V14.01,2013-01-25 05:10:00,
2013-01-24 23:15:00,34.3,23.0,30.15,ESE,105,0.0,0.0,63,0.00,,,0.00,VWS V14.01,2013-01-25 05:15:00,
2013-01-24 23:20:00,34.2,23.7,30.15,East,89,2.0,0.0,65,0.00,,,0.00,VWS V14.01,2013-01-25 05:20:00,
2013-01-24 23:25:00,34.0,24.6,30.15,East,89,0.0,0.0,68,0.00,,,0.00,VWS V14.01,2013-01-25 05:25:00,
2013-01-24 23:30:00,33.9,25.8,30.17,East,90,0.0,0.0,72,0.00,,,0.00,VWS V14.01,2013-01-25 05:30:00,
2013-01-24 23:40:00,33.6,26.2,30.17,East,90,2.0,0.0,74,0.00,,,0.00,VWS V14.01,2013-01-25 05:40:00,
2013-01-24 23:45:00,33.3,26.2,30.16,East,90,0.0,0.0,75,0.00,,,0.00,VWS V14.01,2013-01-25 05:45:00,
2013-01-24 23:55:00,33.1,27.0,30.16,East,90,0.0,0.0,78,0.00,,,0.00,VWS V14.01,2013-01-25 05:55:00,